Flag for United Kingdom Weather past 2 weeks in Plymouth, England, United Kingdom

Now
37 °F

Passing clouds.


Feels Like: 33 °F
Forecast: 41 / 46 °F
Wind: 6 mph from Southwest

Location: Exeter Airport

Current Time: Mar 3, 2015 at 1:08:39 AM

Latest Report: Mar 3, 2015 at 12:20 AM


Visibility: N/A

Pressure: 29.98 "Hg

Humidity: 93%

Dew point: 36 °F

Location of PlymouthLocation

Historic Weather in Plymouth — Graph

°F

Plymouth temperature yesterday

Maximum temperature yesterday: 45 °F (at 10:20 AM)
Minimum temperature yesterday: 36 °F (at 6:50 AM)
Average temperature yesterday: 41 °F

Past Weeks' High & Low Weather Summary

 TemperatureHumidityPressure
High54 °F (Feb 25, 12:20 PM)100% (Feb 16, 6:50 AM)30.77 "Hg (Feb 16, 6:50 AM)
Low30 °F (Feb 18, 8:20 AM)50% (Feb 17, 2:50 PM)29.30 "Hg (Feb 23, 1:20 PM)
Average44 °F81%29.93 "Hg
* Reported Feb 15 11:20 PM — Mar 2 11:50 PM, Plymouth, Weather by CustomWeather, © 2015

Note: Actual official high and low records may vary slightly from our data, if they occured in-between our weather recording intervals... More about our weather records

Advertising

Plymouth weather history for previous 24 hours

 ConditionsComfort  
Time TempWeatherWind HumidityBarometerVisibility
11:50 PM
Mon, Mar 2
36 °FPassing clouds.3 mph93%30.01 "HgN/A
11:20 PM37 °FPassing clouds.3 mph87%30.01 "HgN/A
10:50 PM39 °FPassing clouds.3 mph81%30.01 "HgN/A
10:20 PM39 °FPassing clouds.8 mph87%30.01 "HgN/A
9:50 PM39 °FPassing clouds.2 mph87%30.01 "HgN/A
9:20 PM39 °FPassing clouds.1 mph87%30.01 "HgN/A
8:50 PM39 °FPassing clouds.1 mph81%30.01 "HgN/A
8:20 PM37 °FPassing clouds.5 mph87%30.01 "HgN/A
7:50 PM39 °FPassing clouds.8 mph75%30.01 "HgN/A
7:20 PM41 °FPassing clouds.15 mph70%30.01 "HgN/A
6:50 PM41 °FPassing clouds.8 mph70%29.98 "HgN/A
6:20 PM41 °FPassing clouds.10 mph70%29.98 "HgN/A
5:50 PM43 °FPassing clouds.10 mph66%29.98 "HgN/A
5:20 PM43 °FPassing clouds.12 mph66%29.95 "HgN/A
4:50 PM43 °FPassing clouds.13 mph71%29.98 "HgN/A
4:20 PM43 °FPassing clouds.15 mph71%29.95 "HgN/A
3:50 PM41 °FPassing clouds.15 mph76%29.95 "HgN/A
3:20 PM45 °FSprinkles. Scattered clouds.17 mph61%29.95 "HgN/A
2:50 PM45 °FScattered showers. Passing clouds.14 mph71%29.92 "HgN/A
2:20 PM41 °FPassing clouds.10 mph76%29.92 "HgN/A
1:50 PM43 °FSprinkles. Scattered clouds.18 mph71%29.92 "HgN/A
1:20 PM43 °FScattered showers. Scattered clouds.17 mph71%29.92 "HgN/A
12:50 PM37 °FScattered showers. Scattered clouds.10 mph87%29.92 "HgN/A
12:20 PM41 °FScattered showers. Scattered clouds.14 mph81%29.89 "HgN/A
11:50 AM43 °FScattered showers. Scattered clouds.17 mph66%29.89 "HgN/A
11:20 AM45 °FScattered showers. Scattered clouds.18 mph61%29.86 "HgN/A
10:50 AM43 °FScattered showers. Scattered clouds.20 mph61%29.86 "HgN/A
10:20 AM45 °FScattered showers. Passing clouds.20 mph57%29.83 "HgN/A
9:50 AM43 °FScattered showers. Scattered clouds.18 mph66%29.83 "HgN/A
9:20 AM41 °FScattered showers. Passing clouds.16 mph70%29.80 "HgN/A
8:50 AM41 °FPassing clouds.16 mph70%29.80 "HgN/A
8:20 AM39 °FPassing clouds.14 mph81%29.77 "HgN/A
7:50 AM37 °FPassing clouds.10 mph87%29.74 "HgN/A
7:20 AM37 °FRain showers. Scattered clouds.18 mph87%29.74 "HgN/A
6:50 AM36 °FSprinkles. Passing clouds.10 mph93%29.71 "HgN/A
6:20 AM37 °FRain showers. Passing clouds.15 mph87%29.71 "HgN/A
5:50 AM39 °FScattered showers. Passing clouds.13 mph81%29.68 "HgN/A
Weather by CustomWeather, © 2015

See weather overviewHow to use our weather pages